Temp
12 12 12 12 12 11 11 11 11 10 10 10 10 10 10 10 10 10 10 10 10 10 10 10 10 10 10 10 10 10 10 10 10 10 10 10 10 10 10 10 10 10 10 10 10 10 10 10 10 10 10 10 10 10 10 10 9 9 9 9 9 9 9 9 9 9 9 10 10
12 11 11 11 11 11 11 11 10 10 10 10 10 10 10 10 10 10 10 10 10 10 10 10 10 10 10 10 10 9 9 9 9 9 10 10 10 10 10 10 10 10 10 10 10 10 10 10 10 10 10 10 10 10 10 10 10 9 9 9 9 9 9 9 9 9 9 9 9
11 11 11 11 11 11 11 10 10 10 10 10 10 10 10 10 10 10 10 10 9 9 9 9 9 9 9 9 9 9 9 9 9 9 9 9 9 9 9 9 9 9 9 10 10 10 10 10 10 10 10 10 10 10 10 10 10 9 9 9 8 8 8 8 8 8 8 8 8
11 11 11 11 11 10 10 10 10 10 10 10 10 10 10 10 10 9 9 9 9 9 9 9 9 9 8 8 8 8 8 8 8 8 8 9 9 9 9 9 9 9 9 9 9 9 9 9 9 10 10 10 10 10 10 10 9 9 9 8 8 8 8 8 8 8 8 8 8
10 10 10 10 10 10 10 10 10 10 10 10 10 10 10 10 10 10 9 9 9 9 9 8 8 8 8 8 8 8 8 8 8 8 8 8 8 8 8 8 9 9 9 9 9 9 9 9 9 9 9 9 9 9 9 9 9 9 8 8 8 8 8 8 8 8 8 8 8
10 10 10 10 10 10 10 10 10 10 10 10 10 10 10 10 10 9 9 9 9 9 9 9 8 8 8 8 8 8 8 8 8 8 8 8 8 8 8 8 8 8 8 8 8 8 8 8 9 9 9 9 9 9 9 9 8 8 8 8 8 8 8 8 8 8 8 8 8
10 10 10 10 10 10 10 10 10 10 10 10 10 10 10 10 9 9 9 9 9 9 9 9 8 8 8 8 8 8 8 8 8 8 8 8 8 8 8 8 8 7 8 8 8 8 8 8 8 8 8 8 8 8 8 8 8 8 8 8 8 8 8 8 8 8 8 8 8
10 10 10 10 10 10 10 10 10 10 10 10 10 10 9 9 9 9 9 9 9 9 8 8 8 8 8 8 8 8 8 8 8 8 8 8 7 7 7 7 7 7 7 7 7 7 7 7 7 7 7 7 7 7 7 7 7 7 7 7 7 7 7 7 8 8 8 8 8
10 10 10 10 10 10 10 10 10 10 10 10 9 9 9 9 9 9 9 9 8 8 8 8 8 8 8 8 8 8 8 8 8 8 7 7 7 7 7 7 7 7 6 6 6 6 6 7 7 6 6 6 6 6 6 6 6 6 6 6 7 7 7 7 7 7 7 7 7
10 10 10 10 10 10 10 10 10 10 10 9 9 9 9 9 9 9 8 8 8 8 8 8 8 8 8 8 8 8 8 7 7 7 7 7 7 7 6 6 6 6 6 6 6 6 6 6 6 6 6 6 6 6 6 6 6 6 6 6 6 6 6 6 7 7 7 7 7
9 10 10 10 10 10 10 10 10 9 9 9 9 9 9 9 8 8 8 8 8 8 8 8 8 8 8 8 8 7 7 7 7 7 7 7 7 6 6 6 6 5 5 5 5 5 5 5 5 5 5 5 5 5 5 5 5 5 5 5 5 6 6 6 6 6 6 6 6
9 9 9 9 9 9 9 9 9 9 9 9 9 9 8 8 8 8 8 8 8 8 8 7 7 7 7 7 7 7 7 7 7 7 6 6 6 6 6 6 5 5 5 5 5 5 4 4 4 5 5 5 5 5 5 5 5 5 5 5 5 5 5 5 5 5 5 6 6
9 9 9 9 9 9 9 9 9 9 8 8 8 8 8 8 7 7 7 7 7 7 7 7 7 7 7 7 7 7 7 7 6 6 6 6 6 6 6 5 5 5 5 5 4 4 4 4 4 4 4 4 4 4 4 4 4 4 5 5 5 5 5 5 5 5 5 5 5
9 9 9 8 8 8 8 8 8 8 8 7 7 7 7 7 7 7 7 7 7 7 7 7 7 7 7 6 6 6 6 6 6 6 6 6 6 6 5 5 5 5 5 4 4 4 4 4 4 4 4 4 4 4 4 4 4 4 4 4 4 4 5 5 5 5 5 5 5
8 8 8 8 8 8 8 7 7 7 7 7 6 6 6 6 6 6 6 6 6 6 6 6 6 6 6 6 6 6 6 6 6 6 6 6 6 6 5 5 5 5 4 4 4 4 4 4 4 3 3 3 3 4 4 4 4 4 4 4 4 4 4 5 5 5 5 5 5
8 8 8 7 7 7 7 7 6 6 6 6 6 6 6 6 6 6 6 6 6 6 6 6 6 6 6 6 6 6 6 6 6 6 6 6 6 5 5 5 5 5 4 4 4 4 4 4 3 3 3 3 3 3 3 4 4 4 4 4 4 4 4 4 4 4 4 4 4
8 7 7 7 7 6 6 6 6 5 5 5 5 5 5 5 5 5 5 5 5 5 5 5 5 6 6 6 6 6 6 6 6 5 5 5 5 5 5 5 5 4 4 4 4 4 4 3 3 3 3 3 3 3 3 3 3 4 4 4 4 4 4 4 4 4 4 4 4
7 7 6 6 6 6 5 5 5 5 5 5 5 5 5 5 5 5 5 5 5 5 5 5 5 5 5 5 5 5 5 5 5 5 5 5 5 5 5 4 4 4 4 4 4 4 4 3 3 3 3 3 3 3 3 3 3 3 3 3 3 3 3 3 3 4 4 4 4
6 6 6 5 5 5 5 5 5 5 5 5 5 5 5 5 5 5 5 5 5 5 5 5 5 5 5 5 5 5 5 5 5 5 5 4 4 4 4 4 4 4 4 4 4 4 3 3 3 3 3 3 3 3 3 3 3 3 3 3 3 3 3 3 3 3 3 3 3
5 5 5 5 4 4 4 4 4 4 4 5 5 5 5 5 5 5 5 5 5 5 5 5 5 5 5 5 5 5 5 4 4 4 4 4 4 4 4 4 4 4 4 4 4 3 3 3 3 3 3 3 3 3 3 3 3 3 3 3 3 3 3 3 3 3 3 3 3
5 4 4 4 4 4 4 4 4 4 4 5 5 5 5 5 5 5 5 5 5 5 5 5 5 5 5 5 4 4 4 4 4 4 4 4 3 3 3 3 3 3 3 3 3 3 3 3 3 3 3 3 3 3 3 3 3 3 3 3 3 3 3 3 3 3 3 3 3
4 4 4 4 4 4 4 4 4 5 5 5 5 5 5 5 5 5 5 5 5 5 5 5 5 4 4 4 4 4 4 4 3 3 3 3 3 3 3 3 3 3 3 3 3 3 3 3 3 3 3 3 3 3 3 3 3 3 3 3 3 3 3 3 3 3 3 3 3
4 4 4 4 4 4 4 4 5 5 5 5 5 5 5 5 5 5 5 5 5 4 4 4 4 4 4 4 4 3 3 3 3 3 3 3 3 3 3 3 3 3 3 3 3 3 3 3 3 3 3 3 3 3 3 3 2 2 3 3 3 3 3 2 2 2 3 3 3
4 4 4 4 4 4 4 4 5 5 5 5 4 4 4 4 4 4 4 4 4 4 4 4 4 4 4 3 3 3 3 3 3 3 3 3 2 2 2 2 2 2 2 2 2 2 2 2 2 2 2 2 2 2 2 2 2 2 2 2 2 2 2 2 2 2 2 2 2
4 4 4 4 4 4 4 4 4 4 4 4 4 4 4 4 4 4 4 4 4 4 4 3 3 3 3 3 3 3 2 2 2 2 2 2 2 2 2 2 2 2 2 2 2 2 2 2 2 2 2 2 2 2 2 2 2 2 2 2 2 2 2 2 2 2 2 2 2
4 4 4 4 4 4 4 4 4 4 4 4 4 4 4 4 4 4 4 3 3 3 3 3 3 3 3 3 3 2 2 2 2 2 2 2 2 2 2 2 2 2 2 2 2 2 2 2 2 2 2 2 2 2 2 2 2 2 2 2 2 2 2 2 2 2 2 2 2
4 4 4 4 4 4 4 4 4 4 4 4 4 3 3 3 3 3 3 3 3 3 3 3 2 2 2 2 2 2 2 2 1 1 1 1 1 1 1 1 1 1 1 1 1 2 2 2 2 2 1 1 1 1 1 1 2 2 2 2 2 2 2 2 2 2 2 2 2
4 4 4 4 4 4 4 4 3 3 3 3 3 3 3 3 3 3 3 3 2 2 2 2 2 2 2 2 2 2 1 1 1 1 1 1 1 1 1 1 1 1 1 1 1 1 1 1 1 1 1 1 1 1 1 1 1 1 1 1 1 1 1 1 1 1 1 1 1
4 4 4 4 4 3 3 3 3 3 3 3 3 3 3 3 2 2 2 2 2 2 2 2 2 1 1 1 1 1 1 1 1 1 1 1 1 1 1 1 1 1 1 1 1 1 1 1 1 1 1 1 1 1 1 1 1 1 1 1 1 1 1 1 1 1 1 1 1
4 4 4 3 3 3 3 3 3 3 3 3 2 2 2 2 2 2 2 2 2 1 1 1 1 1 1 1 1 1 1 1 1 0 1 1 1 1 1 0 0 0 0 0 0 0 0 0 0 0 0 0 0 0 0 0 0 1 1 1 1 1 1 1 1 1 1 1 1
3 3 3 3 3 3 3 3 3 2 2 2 2 2 2 2 2 1 1 1 1 1 1 1 1 0 0 0 0 0 0 0 0 0 0 0 0 0 0 0 0 0 -0 -0 -0 -0 -0 -0 -0 -0 -0 -0 -0 -0 -0 0 0 0 0 0 0 0 0 0 0 -0 -0 -0 -0
3 3 3 3 3 3 3 2 2 2 2 2 2 2 1 1 1 1 1 1 1 0 0 0 0 0 -0 -0 -0 -0 -0 -0 -0 -0 -0 -0 -0 -0 -0 -0 -0 -0 -0 -1 -1 -1 -1 -1 -1 -0 -0 -1 -1 -1 -1 -0 -0 -0 -0 -0 -0 -0 -0 -0 -0 -1 -1 -1 -1
3 3 3 3 2 2 2 2 2 2 2 1 1 1 1 1 1 1 1 0 0 0 -0 -0 -0 -1 -1 -1 -1 -1 -1 -1 -1 -1 -1 -1 -1 -1 -1 -1 -1 -1 -1 -1 -1 -1 -1 -1 -1 -1 -1 -1 -1 -1 -1 -1 -1 -1 -1 -1 -1 -1 -1 -1 -1 -1 -1 -1 -1
3 3 2 2 2 2 2 2 2 1 1 1 1 1 1 1 1 0 0 -0 -0 -0 -1 -1 -1 -1 -1 -1 -1 -1 -1 -1 -1 -1 -1 -1 -1 -1 -1 -1 -1 -1 -1 -2 -2 -2 -2 -1 -1 -1 -1 -1 -2 -2 -2 -1 -1 -1 -1 -1 -1 -1 -1 -1 -1 -1 -1 -1 -2
2 2 2 2 2 2 2 1 1 1 1 1 1 1 1 0 0 -0 -0 -0 -1 -1 -1 -1 -1 -1 -1 -1 -1 -2 -2 -2 -2 -2 -2 -2 -2 -2 -2 -2 -2 -2 -2 -2 -2 -2 -2 -2 -2 -2 -2 -2 -2 -2 -2 -2 -2 -2 -2 -2 -2 -2 -2 -2 -2 -2 -2 -2 -2
2 2 2 2 1 1 1 1 1 1 1 1 0 0 0 0 -0 -0 -1 -1 -1 -1 -1 -1 -1 -1 -1 -2 -2 -2 -2 -2 -2 -2 -2 -2 -2 -2 -2 -2 -2 -2 -2 -2 -2 -2 -2 -2 -2 -2 -2 -2 -2 -2 -2 -2 -2 -2 -2 -2 -2 -2 -2 -2 -2 -2 -2 -2 -2
2 1 1 1 1 1 1 1 1 1 0 0 0 -0 -0 -0 -0 -1 -1 -1 -1 -1 -2 -2 -2 -2 -2 -2 -2 -2 -2 -2 -2 -2 -2 -2 -3 -3 -3 -3 -3 -3 -3 -3 -3 -3 -3 -3 -2 -2 -2 -3 -3 -3 -3 -3 -3 -3 -2 -2 -2 -2 -2 -2 -2 -2 -3 -3 -3
1 1 1 1 1 1 1 0 0 0 0 -0 -0 -0 -1 -1 -1 -1 -1 -2 -2 -2 -2 -2 -2 -2 -2 -2 -2 -2 -2 -2 -3 -3 -3 -3 -3 -3 -3 -3 -3 -3 -3 -3 -3 -3 -3 -3 -3 -3 -3 -3 -3 -3 -3 -3 -3 -3 -3 -3 -3 -3 -3 -3 -3 -3 -3 -3 -3
1 1 1 1 0 0 0 0 -0 -0 -0 -0 -1 -1 -1 -1 -1 -1 -2 -2 -2 -2 -2 -2 -2 -2 -2 -3 -3 -3 -3 -3 -3 -3 -3 -3 -3 -3 -3 -3 -3 -3 -3 -3 -3 -3 -3 -3 -3 -3 -3 -3 -3 -3 -3 -3 -3 -3 -3 -3 -3 -3 -3 -3 -3 -3 -3 -3 -3
1 1 0 0 0 0 0 -0 -0 -1 -1 -1 -1 -1 -1 -1 -2 -2 -2 -2 -2 -2 -2 -2 -2 -3 -3 -3 -3 -3 -3 -3 -3 -3 -3 -3 -3 -3 -4 -4 -4 -3 -3 -3 -3 -3 -4 -4 -3 -3 -3 -3 -3 -3 -3 -3 -3 -3 -3 -3 -3 -3 -3 -3 -3 -3 -3 -3 -3
1 0 0 0 -0 -0 -0 -0 -1 -1 -1 -1 -1 -1 -1 -2 -2 -2 -2 -2 -2 -2 -3 -3 -3 -3 -3 -3 -3 -3 -3 -3 -3 -3 -3 -3 -4 -4 -4 -4 -4 -4 -4 -4 -4 -4 -4 -4 -4 -4 -4 -4 -4 -4 -4 -4 -4 -4 -4 -4 -4 -3 -3 -3 -3 -3 -3 -3 -3
Height
1477 1476 1475 1474 1473 1473 1472 1471 1470 1469 1468 1467 1466 1465 1464 1463 1462 1461 1460 1459 1458 1457 1456 1455 1454 1453 1452 1451 1450 1449 1448 1447 1446 1444 1444 1442 1441 1440 1439 1437 1436 1434 1433 1432 1430 1429 1428 1426 1424 1423 1421 1420 1419 1417 1416 1415 1414 1413 1411 1410 1409 1408 1406 1405 1404 1403 1402 1401 1400
1476 1476 1475 1474 1473 1472 1471 1470 1469 1468 1467 1466 1465 1464 1463 1462 1461 1460 1459 1459 1458 1456 1455 1454 1453 1452 1451 1450 1449 1448 1447 1445 1444 1443 1442 1441 1439 1439 1437 1436 1434 1433 1432 1430 1429 1427 1426 1424 1423 1421 1419 1418 1417 1415 1414 1413 1412 1411 1409 1408 1407 1406 1404 1403 1402 1401 1400 1399 1398
1476 1475 1474 1474 1473 1472 1470 1469 1469 1467 1466 1465 1464 1464 1463 1461 1460 1459 1458 1457 1456 1455 1454 1453 1452 1451 1449 1449 1448 1446 1445 1444 1443 1442 1440 1439 1438 1437 1436 1434 1433 1432 1430 1429 1428 1426 1424 1423 1421 1419 1418 1416 1415 1414 1412 1411 1410 1409 1408 1406 1405 1404 1403 1401 1400 1399 1397 1396 1395
1476 1475 1474 1473 1472 1471 1470 1469 1468 1467 1465 1464 1464 1463 1461 1460 1459 1458 1457 1456 1455 1454 1453 1452 1450 1449 1448 1447 1446 1445 1444 1443 1441 1440 1439 1438 1437 1435 1434 1433 1432 1430 1429 1428 1426 1424 1423 1421 1419 1418 1416 1415 1413 1412 1410 1409 1408 1407 1405 1404 1403 1402 1400 1399 1398 1397 1395 1394 1393
1475 1474 1474 1473 1471 1470 1469 1468 1467 1466 1465 1464 1463 1461 1460 1459 1458 1457 1456 1455 1454 1453 1452 1450 1449 1448 1447 1446 1444 1443 1442 1441 1440 1439 1437 1436 1435 1434 1433 1431 1430 1429 1427 1426 1424 1423 1421 1419 1418 1416 1414 1413 1412 1410 1409 1408 1406 1405 1403 1402 1401 1399 1398 1397 1395 1394 1393 1392 1391
1474 1474 1473 1472 1471 1470 1469 1468 1466 1465 1464 1463 1462 1461 1459 1458 1457 1456 1455 1454 1453 1451 1450 1449 1448 1447 1445 1444 1443 1441 1440 1439 1438 1437 1435 1434 1433 1432 1430 1429 1428 1427 1425 1424 1422 1421 1419 1418 1416 1414 1413 1411 1410 1408 1407 1406 1404 1403 1401 1400 1399 1397 1396 1395 1394 1392 1391 1390 1389
1474 1473 1472 1471 1470 1469 1468 1467 1465 1464 1463 1462 1461 1460 1459 1457 1456 1455 1454 1453 1451 1450 1449 1447 1446 1445 1444 1442 1441 1439 1438 1437 1436 1434 1433 1432 1431 1429 1428 1427 1426 1424 1423 1422 1420 1419 1417 1416 1414 1412 1411 1409 1408 1406 1405 1404 1402 1401 1399 1398 1396 1395 1394 1393 1391 1390 1389 1388 1386
1474 1473 1472 1470 1469 1468 1467 1466 1465 1464 1462 1461 1460 1459 1458 1456 1455 1454 1452 1451 1450 1449 1447 1446 1444 1443 1442 1440 1439 1438 1436 1435 1434 1432 1431 1430 1429 1427 1426 1425 1424 1422 1421 1420 1418 1417 1415 1414 1413 1411 1409 1408 1406 1404 1403 1402 1401 1399 1398 1396 1394 1393 1392 1391 1389 1388 1387 1386 1384
1473 1472 1471 1470 1469 1467 1466 1465 1464 1463 1461 1460 1459 1458 1456 1455 1454 1452 1451 1449 1448 1447 1446 1444 1443 1442 1440 1439 1438 1436 1434 1433 1432 1430 1429 1428 1427 1425 1424 1423 1421 1420 1419 1417 1416 1415 1413 1412 1411 1409 1408 1406 1404 1403 1401 1400 1399 1397 1396 1394 1393 1391 1390 1389 1388 1386 1385 1384 1382
1472 1471 1470 1469 1468 1466 1465 1464 1463 1462 1460 1459 1458 1457 1455 1454 1453 1451 1450 1449 1447 1446 1444 1443 1441 1440 1439 1437 1436 1434 1433 1432 1430 1429 1427 1426 1425 1424 1422 1421 1419 1418 1416 1415 1414 1413 1411 1410 1409 1408 1406 1405 1403 1401 1400 1399 1398 1396 1394 1393 1391 1389 1388 1387 1386 1385 1383 1382 1380
1471 1470 1469 1468 1467 1465 1464 1463 1462 1461 1459 1458 1457 1455 1454 1453 1451 1450 1449 1447 1446 1444 1443 1442 1440 1439 1437 1436 1434 1433 1432 1430 1429 1427 1426 1424 1423 1422 1421 1419 1418 1416 1415 1414 1412 1411 1410 1409 1407 1406 1404 1403 1402 1400 1399 1397 1396 1394 1392 1391 1389 1388 1386 1385 1384 1383 1381 1380 1379
1470 1469 1468 1467 1466 1464 1463 1462 1461 1459 1458 1457 1455 1454 1453 1451 1450 1449 1447 1446 1444 1443 1442 1440 1439 1438 1436 1434 1433 1432 1430 1429 1427 1426 1424 1423 1422 1420 1419 1418 1416 1415 1414 1412 1411 1410 1408 1407 1406 1404 1403 1401 1400 1399 1397 1395 1394 1392 1390 1389 1388 1386 1385 1383 1382 1381 1380 1378 1377
1469 1468 1467 1466 1464 1463 1462 1461 1459 1458 1457 1455 1454 1453 1451 1450 1449 1448 1446 1444 1443 1442 1440 1439 1438 1436 1435 1433 1432 1430 1429 1427 1426 1424 1423 1422 1420 1419 1417 1416 1415 1413 1412 1410 1409 1408 1407 1405 1404 1403 1401 1399 1399 1397 1396 1394 1392 1390 1389 1387 1386 1384 1383 1381 1380 1379 1378 1376 1375
1469 1467 1466 1465 1464 1462 1461 1459 1458 1457 1456 1454 1453 1452 1450 1449 1447 1446 1445 1443 1442 1440 1439 1437 1436 1435 1434 1432 1430 1429 1428 1426 1425 1423 1422 1420 1419 1417 1416 1414 1413 1412 1410 1409 1408 1407 1405 1404 1403 1401 1400 1398 1397 1395 1394 1393 1391 1389 1387 1386 1384 1383 1381 1380 1379 1377 1376 1374 1373
1468 1466 1465 1464 1462 1461 1460 1458 1457 1456 1454 1453 1452 1450 1449 1448 1446 1445 1444 1442 1440 1439 1438 1436 1435 1434 1432 1431 1429 1428 1426 1425 1423 1422 1420 1419 1417 1416 1414 1413 1411 1410 1409 1408 1406 1405 1404 1403 1401 1400 1399 1397 1395 1394 1392 1390 1389 1388 1386 1384 1383 1381 1379 1378 1377 1375 1374 1373 1371
1467 1465 1464 1463 1461 1460 1459 1457 1456 1454 1453 1452 1450 1449 1448 1446 1445 1444 1442 1441 1439 1438 1436 1435 1434 1432 1431 1429 1428 1427 1425 1423 1422 1420 1419 1417 1415 1414 1413 1411 1410 1409 1407 1406 1404 1403 1402 1401 1400 1399 1397 1395 1394 1392 1390 1389 1387 1385 1384 1383 1381 1379 1378 1376 1375 1374 1372 1371 1369
1465 1464 1463 1462 1460 1459 1458 1456 1455 1454 1452 1451 1449 1448 1447 1445 1444 1443 1441 1440 1438 1437 1435 1434 1433 1431 1429 1428 1427 1425 1424 1422 1420 1419 1418 1416 1414 1413 1411 1410 1409 1407 1406 1404 1403 1401 1400 1399 1398 1397 1395 1394 1392 1390 1388 1387 1385 1384 1382 1380 1379 1378 1376 1374 1373 1372 1370 1369 1367
1464 1463 1462 1460 1459 1458 1456 1455 1454 1453 1451 1450 1449 1447 1446 1444 1443 1442 1440 1439 1438 1436 1434 1433 1431 1430 1429 1427 1425 1424 1423 1421 1419 1418 1416 1415 1413 1411 1410 1409 1407 1406 1404 1403 1401 1400 1399 1397 1396 1395 1393 1392 1390 1388 1387 1385 1383 1382 1380 1379 1377 1375 1374 1373 1371 1370 1368 1366 1365
1463 1462 1460 1459 1458 1457 1455 1454 1453 1452 1450 1449 1448 1446 1445 1444 1442 1441 1439 1438 1436 1435 1433 1431 1430 1429 1427 1426 1424 1423 1421 1420 1418 1416 1415 1414 1412 1410 1409 1407 1405 1404 1403 1402 1400 1399 1397 1396 1394 1393 1391 1389 1388 1386 1384 1383 1381 1379 1378 1376 1375 1374 1372 1371 1369 1368 1366 1365 1363
1462 1461 1459 1458 1457 1456 1455 1454 1452 1451 1449 1448 1447 1445 1444 1443 1441 1440 1438 1437 1435 1434 1432 1430 1429 1427 1426 1424 1423 1421 1420 1419 1417 1415 1414 1412 1411 1409 1407 1406 1404 1403 1401 1400 1399 1397 1396 1394 1393 1391 1389 1387 1386 1384 1382 1381 1379 1377 1376 1374 1373 1371 1370 1369 1367 1366 1364 1363 1361
1461 1460 1459 1458 1456 1455 1454 1453 1451 1450 1449 1447 1446 1444 1443 1441 1440 1439 1437 1435 1434 1433 1431 1429 1428 1426 1424 1423 1421 1420 1419 1417 1416 1414 1412 1411 1409 1408 1406 1404 1403 1401 1400 1399 1397 1396 1394 1393 1391 1389 1387 1385 1384 1382 1380 1379 1377 1375 1373 1372 1370 1369 1368 1366 1365 1364 1362 1361 1359
1460 1459 1458 1457 1456 1454 1453 1452 1450 1449 1448 1446 1445 1443 1442 1440 1439 1437 1436 1434 1433 1431 1430 1428 1427 1425 1423 1422 1420 1419 1417 1416 1414 1413 1411 1409 1408 1406 1405 1403 1402 1400 1398 1397 1395 1394 1392 1391 1389 1388 1386 1384 1382 1380 1378 1377 1374 1373 1371 1369 1368 1366 1365 1364 1363 1362 1360 1359 1357
1459 1458 1457 1456 1455 1454 1452 1451 1449 1448 1447 1445 1444 1442 1440 1439 1438 1436 1435 1433 1432 1430 1429 1427 1425 1424 1422 1421 1419 1418 1416 1414 1413 1411 1410 1408 1407 1405 1403 1402 1400 1399 1397 1395 1394 1393 1391 1389 1387 1385 1384 1382 1380 1378 1376 1374 1373 1370 1369 1367 1365 1364 1363 1362 1360 1359 1358 1356 1355
1459 1457 1456 1455 1454 1453 1451 1450 1448 1447 1445 1444 1442 1441 1439 1438 1436 1435 1433 1432 1430 1429 1428 1426 1424 1423 1421 1420 1418 1417 1415 1413 1411 1409 1408 1407 1405 1404 1402 1400 1399 1397 1395 1394 1393 1391 1390 1388 1386 1384 1382 1380 1379 1376 1374 1373 1371 1369 1367 1365 1363 1361 1360 1359 1358 1357 1356 1354 1353
1458 1456 1455 1454 1453 1451 1450 1449 1447 1445 1444 1443 1441 1440 1438 1437 1435 1434 1432 1431 1429 1428 1426 1425 1423 1422 1420 1419 1417 1415 1414 1412 1410 1408 1406 1404 1403 1402 1400 1399 1397 1395 1394 1392 1391 1390 1389 1387 1385 1384 1381 1379 1377 1375 1373 1371 1369 1367 1365 1363 1361 1359 1358 1357 1356 1355 1354 1352 1350
1457 1455 1454 1453 1452 1450 1449 1447 1446 1444 1443 1442 1440 1439 1437 1436 1434 1433 1431 1430 1428 1427 1425 1424 1422 1420 1419 1417 1416 1414 1413 1411 1409 1407 1405 1403 1401 1400 1399 1397 1395 1394 1392 1390 1389 1388 1386 1385 1384 1382 1380 1378 1376 1374 1371 1369 1367 1365 1363 1361 1360 1358 1356 1355 1354 1352 1351 1350 1348
1456 1454 1453 1452 1451 1449 1448 1446 1445 1444 1442 1441 1439 1438 1436 1435 1433 1432 1430 1429 1427 1426 1424 1423 1421 1419 1418 1416 1414 1413 1411 1409 1408 1406 1404 1402 1400 1399 1397 1395 1394 1392 1390 1389 1387 1386 1384 1383 1382 1380 1379 1377 1375 1372 1370 1367 1365 1363 1361 1359 1358 1357 1355 1354 1352 1350 1349 1347 1345
1454 1453 1452 1451 1449 1448 1447 1445 1444 1443 1441 1439 1438 1437 1435 1434 1432 1431 1429 1428 1426 1425 1423 1421 1420 1418 1417 1415 1414 1412 1410 1409 1407 1405 1403 1401 1399 1398 1396 1394 1392 1390 1389 1387 1386 1384 1383 1381 1379 1378 1377 1375 1373 1371 1368 1366 1363 1361 1359 1358 1356 1355 1354 1352 1351 1349 1347 1345 1343
1454 1452 1451 1450 1449 1447 1446 1444 1443 1441 1440 1439 1437 1436 1434 1433 1431 1430 1428 1427 1425 1424 1422 1420 1419 1417 1416 1414 1412 1411 1409 1407 1405 1404 1402 1399 1398 1396 1394 1392 1390 1389 1387 1385 1384 1382 1381 1379 1378 1376 1375 1374 1372 1369 1367 1364 1362 1360 1358 1356 1355 1354 1352 1351 1349 1348 1346 1344 1341
1453 1451 1450 1449 1447 1446 1445 1443 1442 1441 1439 1438 1436 1435 1434 1432 1430 1429 1427 1425 1424 1423 1421 1419 1418 1416 1414 1413 1411 1409 1408 1406 1404 1402 1400 1398 1396 1394 1392 1391 1389 1387 1385 1384 1382 1380 1379 1377 1376 1374 1373 1371 1369 1367 1365 1363 1360 1359 1356 1355 1353 1352 1351 1349 1348 1346 1344 1342 1340
1451 1450 1449 1448 1446 1445 1444 1442 1441 1440 1438 1437 1435 1434 1432 1431 1429 1428 1426 1424 1423 1421 1420 1419 1417 1415 1414 1412 1410 1408 1406 1404 1403 1401 1399 1397 1394 1392 1390 1389 1387 1385 1384 1382 1380 1379 1377 1376 1374 1373 1371 1369 1367 1365 1363 1361 1359 1357 1355 1353 1352 1350 1349 1348 1346 1344 1343 1341 1339
1450 1449 1448 1446 1445 1444 1443 1441 1440 1439 1437 1436 1434 1433 1431 1429 1428 1427 1425 1424 1422 1420 1418 1417 1415 1414 1412 1410 1409 1407 1405 1403 1401 1399 1397 1395 1393 1391 1389 1387 1385 1383 1382 1380 1379 1377 1375 1374 1372 1371 1369 1367 1365 1363 1361 1359 1358 1356 1354 1352 1350 1349 1347 1346 1344 1342 1341 1339 1337
1449 1448 1447 1445 1444 1443 1441 1440 1439 1437 1436 1434 1433 1431 1430 1428 1427 1425 1424 1422 1421 1419 1417 1415 1414 1412 1410 1409 1407 1405 1403 1401 1399 1398 1396 1394 1392 1389 1387 1385 1383 1382 1380 1379 1377 1375 1374 1372 1371 1369 1367 1365 1363 1361 1359 1358 1356 1354 1352 1350 1349 1347 1345 1344 1342 1341 1339 1337 1335
1448 1447 1445 1444 1443 1442 1440 1439 1438 1436 1434 1433 1432 1430 1429 1427 1425 1424 1422 1421 1419 1418 1416 1414 1413 1411 1409 1408 1406 1404 1401 1399 1398 1396 1394 1392 1390 1388 1385 1384 1382 1380 1379 1377 1375 1374 1372 1370 1369 1367 1365 1364 1362 1359 1358 1356 1354 1352 1350 1349 1347 1345 1344 1342 1340 1339 1337 1335 1334
1447 1445 1444 1443 1442 1440 1439 1438 1436 1435 1433 1432 1430 1429 1427 1426 1424 1423 1421 1419 1417 1416 1414 1413 1411 1410 1408 1406 1404 1403 1400 1398 1396 1394 1392 1390 1388 1386 1384 1382 1380 1378 1377 1375 1374 1372 1370 1369 1367 1365 1364 1362 1360 1358 1356 1354 1352 1350 1349 1347 1345 1344 1342 1340 1339 1337 1335 1334 1332
1445 1444 1443 1441 1440 1439 1438 1436 1435 1433 1432 1430 1429 1427 1426 1424 1423 1421 1420 1418 1416 1414 1413 1411 1409 1408 1406 1404 1402 1401 1399 1397 1394 1392 1390 1389 1386 1384 1382 1379 1378 1376 1375 1374 1372 1370 1369 1367 1365 1364 1362 1360 1358 1356 1354 1352 1350 1348 1347 1345 1343 1341 1340 1338 1337 1335 1333 1332 1330
1444 1443 1442 1440 1439 1438 1436 1435 1434 1432 1430 1429 1428 1426 1424 1423 1421 1419 1418 1416 1414 1412 1411 1409 1408 1406 1404 1402 1400 1399 1397 1395 1393 1391 1389 1387 1385 1383 1380 1378 1376 1374 1373 1372 1370 1369 1367 1365 1364 1362 1361 1359 1357 1355 1353 1351 1349 1347 1344 1343 1341 1339 1338 1336 1334 1333 1331 1330 1328
1444 1442 1441 1439 1438 1436 1435 1434 1432 1431 1429 1428 1426 1425 1423 1421 1420 1418 1417 1415 1413 1411 1409 1407 1406 1404 1403 1401 1399 1397 1395 1394 1392 1389 1387 1385 1384 1381 1379 1376 1374 1373 1371 1370 1369 1367 1365 1364 1362 1361 1359 1358 1355 1353 1351 1349 1347 1345 1343 1341 1339 1337 1336 1334 1333 1331 1329 1328 1326
1442 1441 1440 1438 1437 1435 1434 1433 1431 1430 1428 1426 1424 1423 1422 1420 1419 1417 1415 1414 1412 1410 1408 1406 1404 1403 1401 1399 1397 1395 1393 1392 1390 1388 1386 1384 1382 1380 1378 1376 1373 1371 1370 1369 1367 1365 1364 1362 1361 1359 1358 1356 1354 1352 1350 1348 1345 1343 1341 1339 1337 1335 1334 1332 1331 1329 1328 1326 1324
1441 1440 1439 1437 1436 1434 1433 1431 1430 1429 1427 1425 1424 1422 1420 1419 1417 1416 1414 1413 1411 1409 1407 1405 1403 1401 1399 1398 1395 1393 1391 1389 1388 1387 1385 1383 1380 1379 1377 1374 1372 1370 1369 1367 1365 1364 1363 1361 1359 1358 1357 1355 1353 1351 1349 1346 1344 1342 1340 1338 1336 1334 1332 1330 1329 1328 1326 1324 1322
1440 1439 1438 1436 1435 1433 1432 1430 1429 1427 1426 1424 1423 1421 1419 1418 1416 1414 1413 1411 1409 1408 1406 1404 1401 1400 1398 1396 1394 1392 1389 1387 1386 1384 1383 1381 1379 1377 1375 1373 1371 1369 1367 1366 1364 1363 1361 1360 1358 1357 1355 1354 1352 1349 1348 1345 1343 1341 1339 1337 1335 1333 1331 1329 1327 1326 1324 1322 1320
Wind_Speed
11 12 12 13 13 14 14 15 15 15 16 17 18 18 18 18 18 17 17 17 17 18 19 19 20 20 21 21 21 22 22 22 22 23 23 23 24 24 24 24 25 25 26 26 27 27 27 27 27 27 27 27 27 27 27 27 27 27 27 28 28 28 29 29 30 31 32 33 34
11 11 12 12 13 14 14 15 15 15 16 17 18 18 19 19 19 19 19 18 18 18 19 19 20 20 21 21 21 21 22 22 23 23 23 23 23 23 24 24 24 24 24 25 25 26 27 27 28 28 29 29 29 29 29 28 28 28 28 28 28 28 29 30 31 31 32 32 32
11 11 12 13 13 14 15 16 16 17 17 18 19 19 20 20 20 21 21 20 20 20 20 20 21 21 21 22 22 22 22 23 23 24 24 24 25 24 25 25 25 25 25 25 25 25 26 27 27 28 29 29 30 30 30 29 29 29 29 29 29 29 30 31 32 32 32 32 32
12 12 13 13 14 15 16 17 18 18 19 20 21 21 22 22 23 23 23 23 23 22 22 22 22 22 23 23 23 24 24 24 25 25 26 26 27 26 26 26 26 26 26 26 26 26 26 27 27 28 28 28 29 30 30 30 30 30 30 30 30 30 31 31 32 32 32 32 32
14 14 14 15 15 16 17 18 19 20 21 22 23 23 24 24 25 25 25 25 25 25 24 24 24 24 24 25 25 26 26 27 27 28 28 28 28 28 28 28 27 27 27 27 27 27 27 27 28 28 28 28 28 29 29 30 30 30 31 31 31 31 31 32 31 31 31 32 32
16 16 16 17 17 18 18 20 21 22 23 24 24 25 25 26 26 26 26 26 26 26 26 26 26 26 27 28 28 29 29 30 30 30 30 30 30 30 29 28 28 28 28 28 28 28 28 28 28 28 28 28 28 29 29 29 30 31 31 32 32 32 32 32 31 31 31 32 32
18 18 19 19 20 20 21 22 23 24 25 25 26 26 26 27 27 27 27 27 27 27 28 28 28 29 29 30 31 32 32 32 33 32 32 32 31 31 30 29 28 28 28 28 28 28 27 27 28 28 29 29 29 30 30 30 31 31 32 32 32 32 32 32 32 31 31 31 32
20 20 21 21 22 22 23 24 25 25 26 26 27 27 27 27 27 28 28 28 28 29 29 30 30 31 32 32 33 34 34 35 35 34 34 33 33 32 31 30 30 29 29 29 28 28 27 27 27 28 29 29 30 31 31 31 32 32 32 33 32 32 32 31 31 31 31 31 31
21 22 23 23 23 24 25 25 26 26 27 27 28 28 28 28 28 29 29 29 30 30 31 31 32 33 33 34 35 35 36 36 36 36 35 34 34 33 32 32 31 31 31 30 29 28 28 27 27 28 28 29 30 31 32 32 32 32 32 32 32 32 31 31 30 30 30 31 31
22 23 24 24 25 25 26 26 27 27 28 28 29 29 29 29 29 30 30 30 31 31 32 33 33 34 35 36 36 36 36 36 36 36 35 34 34 33 33 33 32 32 32 31 30 29 28 28 28 28 28 29 30 31 31 31 31 31 31 31 31 31 31 30 30 30 30 30 31
23 24 24 25 26 26 27 27 27 28 29 29 29 30 30 30 30 31 31 31 32 32 33 34 34 35 36 36 36 36 36 36 35 35 35 34 34 33 33 33 33 33 33 32 31 30 29 29 29 29 29 29 29 30 30 30 30 30 31 31 31 31 31 30 30 29 29 30 30
23 24 25 25 26 26 27 27 28 29 29 29 30 30 30 31 31 31 32 32 33 33 34 34 35 35 35 36 36 35 35 35 34 34 34 34 33 33 33 33 33 33 33 32 31 31 30 30 30 30 30 29 29 29 29 30 30 31 31 31 31 32 32 32 31 30 30 30 31
24 24 25 26 26 27 27 28 28 29 29 30 30 30 31 31 32 32 32 33 33 34 34 34 34 34 34 34 34 34 34 34 34 33 33 33 33 33 33 33 33 33 33 32 32 31 31 31 31 30 30 30 29 29 29 30 31 32 32 33 33 33 33 33 32 32 32 32 32
24 25 25 26 27 27 28 28 28 29 29 30 30 30 31 31 32 32 32 33 33 33 33 33 33 33 33 33 33 33 33 33 33 33 33 33 33 33 33 33 33 33 33 33 32 32 31 31 31 31 31 31 31 31 31 32 32 33 34 34 34 34 34 34 34 34 34 34 33
25 25 26 26 27 27 27 28 28 28 29 29 30 30 30 31 31 32 32 32 32 32 32 32 32 32 32 31 32 32 32 32 32 32 33 33 33 33 33 34 34 34 33 33 33 32 32 32 32 32 32 32 33 33 34 34 34 34 34 34 34 34 34 34 34 34 35 35 35
25 25 26 26 26 27 27 27 27 28 28 28 29 29 29 30 30 30 30 30 30 31 31 31 31 31 32 31 31 32 32 32 32 33 33 33 34 34 34 34 34 34 34 34 34 33 33 33 33 33 33 33 34 35 36 36 36 36 35 35 34 34 34 34 34 34 34 34 34
25 25 25 25 25 26 26 26 26 27 27 27 28 28 28 28 29 29 29 29 29 30 30 30 31 31 32 32 32 32 32 33 33 33 33 33 34 34 34 34 34 34 34 34 34 34 34 34 34 34 34 35 36 37 37 37 37 36 36 35 35 34 34 34 34 34 34 34 34
24 24 24 24 24 25 25 25 25 26 26 26 26 26 27 27 27 28 28 28 29 30 31 31 31 32 32 33 33 33 32 33 33 33 33 33 33 33 34 34 34 34 34 34 34 35 35 35 35 35 36 36 37 37 37 37 37 37 36 36 35 35 35 35 34 34 34 34 34
22 23 23 23 23 24 24 24 24 25 25 25 25 26 26 27 27 28 29 29 30 31 31 32 33 33 33 33 33 33 33 32 33 33 33 32 33 33 33 34 34 34 34 34 34 34 35 35 35 36 36 37 37 38 38 38 38 37 37 36 36 36 36 36 35 35 34 34 33
21 21 21 22 22 23 23 23 24 24 24 25 25 26 27 28 28 29 30 31 31 32 32 33 33 34 34 34 34 33 33 32 32 32 32 32 32 32 33 33 34 34 34 34 34 34 35 35 36 36 37 38 38 38 38 38 38 38 37 37 37 37 37 37 36 36 35 34 33
19 20 20 21 21 22 22 23 24 24 25 26 27 27 28 29 30 30 31 31 32 32 33 33 33 34 34 34 34 33 33 32 31 31 31 31 31 31 32 32 33 33 33 33 33 34 34 35 36 36 37 38 38 39 39 39 39 39 38 38 38 38 38 38 37 36 35 34 33
18 19 20 20 21 22 23 23 24 25 26 27 28 29 30 30 31 31 31 31 32 32 32 33 33 33 33 33 33 33 32 32 31 31 31 31 31 31 31 31 32 33 33 33 33 34 34 35 35 36 37 38 39 39 39 39 39 39 39 39 39 39 39 38 37 37 36 34 34
18 19 20 21 22 23 24 25 26 27 28 28 29 30 30 30 30 30 31 31 31 31 31 32 32 32 32 32 32 32 32 32 31 31 31 31 31 31 32 32 32 33 33 33 33 34 34 35 36 36 37 38 39 39 39 39 39 39 39 39 40 40 40 39 38 37 37 36 35
19 20 21 22 23 24 25 26 27 28 28 29 29 29 29 29 29 30 30 30 30 30 30 31 31 31 31 31 31 31 31 31 32 32 32 32 32 32 32 33 33 33 33 33 33 33 34 35 36 37 37 38 38 39 39 39 38 39 39 40 40 40 40 40 39 38 37 37 36
20 21 22 23 24 25 26 27 27 28 28 28 28 28 28 28 29 29 29 29 29 30 30 30 30 30 30 31 30 30 30 31 31 32 33 33 33 33 33 33 34 34 34 34 34 34 33 34 34 35 36 37 37 38 38 38 38 38 39 39 40 40 40 40 39 39 38 38 37
22 23 24 24 25 25 26 26 26 27 27 27 27 27 27 28 28 28 29 29 29 29 29 29 30 30 30 30 30 31 30 31 31 32 33 33 34 34 34 34 34 34 35 34 34 34 34 33 34 34 35 35 36 37 37 38 38 38 38 39 39 39 39 39 39 39 38 38 38
23 24 24 25 25 25 25 25 26 26 26 26 27 27 27 27 28 28 28 28 29 29 29 29 29 30 30 30 30 31 31 31 31 32 32 33 34 34 34 34 34 35 35 34 34 34 34 34 33 33 33 33 34 35 36 37 38 38 38 38 38 38 38 38 38 38 38 38 38
24 24 24 24 24 24 24 25 25 25 26 26 27 27 27 27 27 28 28 28 28 29 29 29 29 30 30 30 30 31 31 31 31 32 32 33 33 34 34 34 34 34 34 34 34 33 33 33 33 32 32 32 33 34 35 36 37 38 38 37 37 37 36 36 36 36 37 37 38
23 24 24 23 24 24 24 25 25 26 26 26 27 27 27 27 27 28 28 28 29 29 29 29 30 30 30 30 30 31 31 31 32 32 33 33 33 34 34 34 34 34 34 33 33 32 32 32 31 31 31 31 32 33 35 36 36 36 36 36 35 34 34 34 34 35 36 36 37
22 22 23 23 23 24 24 25 25 26 26 26 27 27 27 27 27 28 28 28 29 29 29 29 29 30 30 30 31 31 32 32 32 32 33 34 34 34 34 34 34 34 33 32 32 31 31 31 30 30 30 31 31 33 34 34 34 34 34 33 32 32 32 32 33 34 35 35 36
21 22 22 23 23 24 24 25 25 26 26 26 27 27 27 27 28 28 28 28 29 29 29 29 30 30 31 31 31 32 32 33 33 33 34 34 35 35 35 34 34 33 33 32 31 31 30 30 30 30 30 31 32 33 33 33 33 32 32 31 31 30 30 31 32 32 33 34 34
21 21 22 23 23 24 25 25 26 26 26 27 27 27 27 28 28 28 28 28 29 30 30 30 31 31 32 32 33 33 33 34 34 34 34 34 35 35 35 35 34 33 33 32 31 31 31 30 30 30 31 32 33 33 33 33 32 31 31 30 30 30 29 30 30 31 31 32 32
21 22 23 23 24 25 25 26 26 27 27 27 27 28 28 28 29 29 29 29 29 30 31 31 32 32 33 33 34 34 34 34 34 34 34 34 35 35 35 34 34 33 32 32 31 31 31 31 31 31 31 32 33 34 34 33 32 31 30 30 30 30 30 30 30 30 30 31 31
21 22 23 24 25 25 26 26 27 27 28 28 28 28 28 29 29 30 30 30 30 31 31 31 32 32 33 33 34 34 35 35 35 35 34 34 34 34 34 34 34 33 32 32 32 32 32 32 31 31 32 33 34 34 34 33 32 31 30 30 30 30 30 30 30 30 30 31 31
22 23 24 25 25 26 27 27 28 28 28 29 29 29 29 29 30 30 30 31 31 32 32 32 33 33 33 34 34 34 35 35 35 35 34 34 34 34 34 34 33 33 32 32 32 32 32 31 31 31 31 33 33 34 34 33 32 31 31 30 30 30 30 30 30 31 31 32 33
22 23 25 25 26 26 27 28 28 29 29 29 29 30 30 30 30 30 31 31 32 33 33 33 34 34 34 35 35 34 34 35 35 35 34 34 33 33 33 33 33 33 32 32 32 32 31 30 30 30 31 33 33 34 33 33 32 32 32 31 31 31 31 31 31 31 32 33 34
23 24 25 26 26 27 27 28 29 29 29 30 30 30 30 31 31 31 31 32 32 33 34 34 35 35 35 35 35 35 35 34 34 34 34 33 32 32 33 33 33 33 32 32 31 30 30 29 29 30 31 33 33 34 34 33 33 33 33 33 33 32 32 31 31 31 32 33 35
23 24 25 26 27 27 28 28 28 29 29 30 30 30 30 31 31 32 32 32 33 34 34 35 35 35 35 35 35 35 35 34 33 33 33 32 31 31 32 33 33 32 31 31 30 29 29 29 29 30 31 32 33 34 34 34 33 34 34 34 34 34 33 32 31 31 32 33 35
23 24 25 26 26 27 28 28 28 29 29 30 30 31 31 31 32 32 32 32 32 33 34 35 35 35 35 35 35 35 35 33 32 32 31 31 30 30 31 31 32 31 30 30 29 29 29 29 30 30 31 32 33 34 34 34 34 34 34 34 34 34 33 32 32 32 33 34 36
23 24 25 25 26 27 28 28 28 29 29 30 30 31 31 31 32 32 32 32 33 33 34 35 35 35 35 35 35 35 34 34 32 31 30 30 30 30 30 30 31 31 30 29 29 29 29 30 31 31 32 32 33 34 34 34 34 34 33 34 33 33 33 32 32 32 32 33 35
24 24 25 26 26 27 27 28 29 29 29 29 30 31 31 32 32 32 32 33 33 33 34 34 35 35 34 34 34 34 34 33 32 31 30 30 30 30 30 30 30 30 30 29 29 30 30 31 32 32 32 32 33 33 34 34 34 33 33 33 33 32 32 32 32 32 32 33 34
Wind_Direction
343 341 340 339 340 341 342 343 343 343 342 341 342 342 342 341 339 337 335 333 330 327 325 323 321 320 320 319 319 318 318 318 317 317 316 316 316 316 315 314 313 312 311 310 309 309 308 308 308 308 307 307 306 306 306 308 309 310 310 310 310 310 309 308 305 303 301 300 298
342 339 336 335 336 337 338 339 339 339 337 336 337 338 338 338 337 336 335 334 332 329 327 325 323 322 322 321 321 320 320 320 320 320 320 320 320 320 320 319 319 317 316 315 313 312 311 311 311 310 309 308 308 307 306 306 308 309 311 312 313 313 313 311 309 307 305 303 301
345 341 337 336 337 337 338 338 337 336 335 335 335 336 337 337 337 337 336 335 333 331 330 328 326 325 324 323 322 322 321 321 321 321 321 322 322 322 322 322 321 320 319 318 317 316 315 314 312 311 310 309 309 308 307 307 308 310 311 313 314 313 312 310 309 308 307 305 303
349 345 342 341 340 339 338 337 336 335 334 334 335 335 335 336 336 336 335 333 333 332 331 330 328 326 325 323 322 322 321 321 321 321 321 322 322 322 322 322 321 320 319 318 317 317 316 315 313 312 311 310 309 308 308 309 309 310 311 312 312 311 311 309 309 308 308 307 306
349 346 344 342 340 339 337 335 334 333 333 333 333 333 333 333 333 332 332 331 331 331 330 328 327 325 324 323 322 322 322 322 322 322 322 322 322 322 322 321 321 320 319 318 317 316 315 314 312 311 310 310 309 308 308 309 309 310 310 309 309 310 309 309 309 309 309 308 307
344 342 341 339 338 336 334 332 332 331 331 330 330 330 330 330 330 329 329 328 327 326 326 325 325 324 324 323 323 323 323 323 323 323 323 323 323 323 322 322 321 319 319 318 317 316 314 313 311 309 309 308 307 307 307 307 308 309 309 309 308 309 309 309 309 309 308 307 307
339 337 336 335 334 332 331 330 329 328 327 327 327 327 327 327 327 326 325 324 323 323 323 324 324 323 323 323 323 323 323 323 323 323 323 324 324 323 323 322 321 320 319 318 317 315 314 312 310 309 308 308 307 307 307 308 309 310 310 310 309 309 309 309 309 309 308 307 307
336 334 333 332 331 330 329 327 326 326 325 325 325 325 325 325 324 323 322 322 322 323 323 323 323 323 322 323 323 323 323 323 323 323 323 323 324 324 323 322 322 321 320 319 318 316 314 312 310 309 310 310 310 310 310 310 311 312 312 312 311 310 310 310 310 309 308 308 306
333 332 331 330 328 327 326 325 324 324 323 323 323 323 323 323 322 322 322 322 322 322 322 322 322 321 322 322 322 322 322 322 322 322 323 323 323 323 323 323 323 323 323 322 321 320 317 315 313 312 312 312 313 312 312 314 315 316 316 315 314 312 311 311 311 310 309 308 307
331 330 329 328 326 325 324 323 322 321 321 321 321 321 321 321 321 322 322 322 321 321 321 321 321 321 321 321 322 322 322 322 322 322 322 322 323 324 324 325 325 325 325 325 325 323 322 320 318 316 314 314 314 314 315 317 319 319 319 318 317 315 313 312 312 312 311 310 309
330 329 327 326 324 322 321 321 320 320 320 320 320 320 320 321 321 321 321 320 320 320 320 320 320 321 321 321 321 321 321 321 322 322 322 322 323 323 324 325 326 326 327 327 327 327 326 324 323 320 318 317 317 317 319 320 321 321 319 318 318 317 315 314 314 314 314 313 312
328 326 324 323 321 320 320 320 320 319 319 319 320 320 320 321 321 321 320 320 320 320 320 320 320 320 320 320 321 321 321 321 321 322 322 322 323 323 324 325 326 326 327 327 328 329 328 327 326 325 323 322 322 322 322 321 321 320 318 318 317 317 317 316 315 315 315 314 314
325 323 322 321 320 320 320 320 320 319 320 320 320 321 321 321 321 321 321 321 321 320 320 320 320 321 321 321 321 321 321 321 322 322 322 323 323 324 324 325 325 326 326 327 328 329 329 329 329 328 327 326 325 324 323 321 319 318 317 317 316 316 316 316 316 315 315 315 314
321 320 320 319 320 320 320 320 320 320 321 321 321 322 322 322 322 322 322 322 322 322 322 321 321 321 322 322 322 322 322 322 322 322 323 323 323 324 324 324 325 325 325 326 327 329 329 330 330 330 330 328 326 324 322 320 318 317 317 316 316 315 315 315 314 315 315 315 314
319 319 319 319 320 320 321 321 322 322 322 323 323 323 323 323 324 324 324 324 324 324 323 323 323 323 323 323 323 323 323 323 323 323 323 323 323 323 323 323 323 324 324 324 325 327 328 330 331 331 330 328 326 324 322 321 319 318 318 317 316 315 314 314 314 314 314 315 314
318 319 320 320 321 321 322 323 323 324 324 324 324 325 325 325 326 326 326 326 325 325 325 324 324 324 324 324 324 324 323 323 323 324 323 323 323 323 322 322 322 322 322 322 323 324 326 328 329 329 329 327 325 324 323 322 322 321 320 319 318 317 316 315 315 315 315 315 315
319 320 321 321 322 323 324 325 325 326 326 326 326 327 327 327 327 327 327 327 326 326 325 325 325 324 324 324 324 324 324 323 323 323 323 322 322 321 321 320 320 319 320 320 321 322 324 325 327 327 326 325 324 324 323 323 323 322 322 321 320 319 318 318 318 318 317 317 317
320 321 322 323 324 325 326 327 327 328 328 328 329 329 329 328 328 328 327 327 326 326 325 325 324 324 324 323 323 323 323 323 322 322 321 321 320 319 318 318 317 316 317 317 319 320 322 323 324 324 324 323 323 322 322 323 323 322 322 322 321 321 320 320 320 320 320 319 319
322 323 324 326 327 328 329 329 329 329 330 330 329 329 328 328 327 327 326 326 326 326 325 324 323 323 322 322 322 322 322 322 321 320 319 319 318 316 316 315 314 314 314 315 316 317 319 320 321 321 321 321 321 320 321 321 321 321 321 321 321 321 321 322 322 321 321 320 319
324 326 327 328 329 330 330 331 331 330 330 329 328 327 327 326 326 326 325 325 325 325 324 323 322 321 321 321 321 321 321 320 320 319 318 317 316 314 313 312 312 311 312 312 313 315 316 317 318 318 318 319 319 319 319 319 319 319 319 320 320 321 321 322 322 322 321 321 320
327 328 329 330 330 331 331 330 330 329 328 327 326 326 325 325 325 325 325 325 324 324 323 322 322 321 321 321 321 321 320 320 319 318 316 315 314 312 311 311 310 310 310 311 311 312 313 314 315 316 316 316 317 317 318 318 318 317 318 318 319 319 320 321 321 321 321 320 319
329 329 330 330 330 330 330 329 328 327 326 326 326 325 325 325 326 326 325 325 325 324 324 323 323 322 322 322 321 321 320 319 317 316 314 313 312 311 310 310 309 309 309 310 311 312 312 312 313 313 314 315 315 315 316 316 316 316 316 317 317 318 319 319 320 320 319 319 318
329 329 329 329 329 329 328 328 327 326 326 326 326 326 327 327 327 327 327 326 326 326 326 325 324 324 323 323 322 321 320 318 317 315 314 312 311 310 310 310 310 310 310 310 311 312 312 313 312 312 313 313 314 314 314 314 315 315 315 316 316 317 318 318 318 318 318 317 317
329 328 328 328 328 328 328 327 327 327 327 328 329 329 330 330 330 329 329 329 329 329 328 327 327 326 325 324 323 322 321 320 318 317 315 314 312 312 311 311 310 310 310 309 310 310 311 312 313 313 313 313 313 313 313 313 313 313 314 315 316 316 317 317 317 316 316 316 315
328 328 327 328 328 328 329 329 329 329 330 331 331 332 332 333 333 332 332 332 332 331 331 330 329 328 327 326 325 324 323 322 320 319 318 317 316 314 314 313 312 311 309 309 308 308 308 309 310 311 312 313 313 313 312 312 312 312 312 313 315 316 316 316 315 315 314 314 314
327 327 328 329 329 330 331 331 332 332 333 334 334 335 335 335 335 334 334 334 333 333 332 331 331 330 329 328 327 326 325 324 323 322 321 320 319 318 316 315 313 312 310 309 308 307 307 306 306 308 311 313 314 314 313 312 311 311 312 313 314 315 315 315 314 313 313 313 313
327 328 329 330 331 332 333 334 334 335 335 336 336 336 336 336 336 335 335 334 334 333 333 332 332 331 330 329 329 328 327 326 325 324 323 322 321 320 318 317 315 313 311 310 308 307 307 306 306 308 310 313 315 315 315 314 313 312 313 314 314 315 314 314 313 312 312 313 313
328 329 330 331 332 334 335 335 336 337 337 337 337 337 337 336 336 336 335 335 334 334 333 333 332 331 330 330 329 328 328 327 326 325 324 323 322 320 319 318 316 314 312 311 310 309 308 308 309 310 313 316 317 317 316 315 315 315 315 315 315 315 315 314 313 312 312 313 314
328 329 331 333 334 336 336 337 338 338 338 338 337 337 336 336 336 335 335 335 334 334 333 333 332 331 330 329 329 328 327 327 326 326 324 323 322 321 320 319 317 315 314 313 312 311 311 312 313 315 316 318 319 319 318 318 318 317 317 317 317 317 316 315 313 312 312 313 314
329 331 332 334 336 337 338 338 338 338 337 337 337 336 336 335 335 335 335 334 334 333 333 332 331 330 329 329 328 328 327 326 326 325 325 324 323 322 321 319 318 316 315 314 314 314 314 315 317 317 318 319 320 320 320 320 320 319 319 318 318 318 317 315 313 312 313 313 314
331 333 334 336 337 337 338 338 337 337 337 336 336 336 335 335 335 335 335 334 333 332 331 331 330 329 329 328 328 327 327 326 326 325 324 324 323 321 320 319 318 317 316 315 315 316 316 317 317 318 319 321 322 322 322 321 321 321 320 319 318 317 316 314 313 312 312 313 313
333 334 335 336 337 337 337 337 337 336 336 336 336 336 335 335 335 335 334 333 332 331 331 330 330 329 329 329 328 327 326 326 325 325 324 323 322 321 320 319 317 316 316 316 316 317 317 317 317 318 321 323 324 324 323 323 322 321 320 318 317 316 315 314 313 312 311 311 312
334 335 336 337 337 337 337 336 336 336 336 336 335 335 335 334 334 333 333 333 332 331 331 330 330 329 329 328 328 327 326 325 325 324 323 322 321 320 319 318 317 316 316 316 317 317 317 316 317 319 322 324 325 324 324 323 323 321 320 319 318 317 317 316 315 313 312 312 312
336 336 336 337 337 337 336 336 336 336 335 335 335 335 334 334 333 333 333 332 332 331 330 330 329 329 328 328 327 326 325 325 324 323 323 322 321 319 318 317 317 316 316 317 317 317 317 317 318 320 323 325 325 325 324 323 322 321 320 319 319 319 319 319 317 316 314 314 315
337 336 336 336 336 336 336 335 335 335 335 334 334 334 334 333 333 333 332 332 331 330 330 329 329 328 327 327 327 326 326 325 324 323 323 322 321 320 319 318 317 317 317 318 318 318 318 318 319 320 323 325 325 324 323 322 321 320 319 319 320 320 320 320 319 318 318 318 318
337 336 336 336 336 336 335 335 335 334 334 334 333 333 333 332 332 332 332 331 330 330 329 329 328 328 328 327 327 327 326 325 324 324 323 322 322 321 320 319 318 318 318 319 320 320 320 320 320 322 323 324 324 323 322 321 321 320 320 320 320 321 321 321 321 320 320 320 320
337 337 336 335 335 335 334 334 334 334 333 333 333 332 332 332 332 332 332 332 331 330 329 328 328 328 328 328 328 327 326 326 325 324 324 323 323 323 322 321 320 320 320 321 322 322 322 322 322 323 323 324 323 322 322 321 321 321 320 321 321 321 321 322 321 321 320 320 321
337 336 335 334 334 334 333 333 333 333 333 332 332 332 331 331 331 332 332 332 331 329 328 328 328 328 328 328 327 326 326 325 325 325 324 324 324 324 324 323 322 322 323 323 324 325 325 325 324 323 323 323 322 322 322 322 322 322 321 322 321 321 322 322 322 321 320 320 320
336 335 334 333 333 333 333 333 332 332 332 331 331 331 331 331 331 331 331 330 330 329 328 327 327 328 328 328 327 326 325 325 325 325 325 325 325 325 325 324 324 324 325 326 327 327 328 327 325 324 322 322 321 322 322 323 323 322 322 322 322 322 322 321 321 320 319 319 320
335 334 333 333 332 332 332 332 332 331 331 331 331 331 331 331 330 330 329 329 328 328 327 327 327 327 328 327 327 326 325 325 326 326 326 326 326 326 326 326 326 326 328 329 330 330 329 328 326 324 323 322 322 323 323 323 322 322 322 322 321 321 320 320 319 319 318 319 320
333 333 333 332 332 332 332 331 331 331 331 331 331 331 330 330 329 329 328 328 328 327 327 327 327 327 327 327 326 326 326 326 326 327 327 327 327 327 327 327 328 328 330 331 331 330 329 327 325 324 323 323 323 323 322 322 321 321 320 320 320 319 318 317 317 317 317 318 319